STARLINK-34432

Last updated on Thu Jul 03 2025 00:02:07 GMT+0000 (Coordinated Universal Time)

1 64426U 25129Q 25183.58335648 -.01560159 00000+0 -18521-1 0 9998 2 64426 69.9997 351.5505 0003339 263.2918 35.1777 15.63977269 3576
UTC large
Height (km)
Speed (km/s)
/
Latitude / Longitude
Inclination (degrees)
Orbital Period (minutes)
Azimuth
Elevation
Range (km)
Doppler Factor

Next 0 passes for location: London (51.5072 / 0.1276)

Sorry there are no passes over London.